�������l�o���
Date,Time,MP-1(��Sv/h),MP-2(��Sv/h),MP-3(��Sv/h),MP-4(��Sv/h),MP-5(��Sv/h),MP-6(��Sv/h),MP-7(��Sv/h),MP-8(��Sv/h),����,����(m/s),���J
2021/05/27,00:00,0.614,0.908,0.576,1.101,0.784,0.368,0.640,0.601,��,2.5,��
2021/05/27,00:10,0.613,0.905,0.576,1.100,0.782,0.368,0.639,0.601,��,2.0,��
2021/05/27,00:20,0.614,0.907,0.577,1.100,0.782,0.370,0.640,0.600,��,2.0,��
2021/05/27,00:30,0.615,0.906,0.577,1.099,0.783,0.369,0.638,0.600,��쐼,2.2,��
2021/05/27,00:40,0.614,0.906,0.577,1.100,0.782,0.369,0.640,0.599,��쐼,2.2,��
2021/05/27,00:50,0.615,0.904,0.576,1.098,0.782,0.369,0.639,0.600,��,2.0,��
2021/05/27,01:00,0.614,0.907,0.577,1.099,0.782,0.369,0.640,0.599,��,1.1,��
2021/05/27,01:10,0.612,0.907,0.578,1.102,0.783,0.369,0.641,0.599,��,1.4,��
2021/05/27,01:20,0.614,0.909,0.576,1.099,0.783,0.369,0.638,0.601,��,1.4,��
2021/05/27,01:30,0.614,0.905,0.577,1.101,0.783,0.369,0.639,0.601,��쓌,0.9,��
2021/05/27,01:40,0.615,0.907,0.577,1.101,0.782,0.369,0.642,0.600,��쓌,1.2,��
2021/05/27,01:50,0.614,0.907,0.577,1.099,0.783,0.369,0.640,0.600,�쓌,1.2,��
2021/05/27,02:00,0.613,0.907,0.578,1.101,0.782,0.369,0.640,0.599,�쓌,1.2,��
2021/05/27,02:10,0.615,0.903,0.576,1.100,0.782,0.371,0.641,0.601,��쓌,1.2,��
2021/05/27,02:20,0.613,0.908,0.577,1.102,0.784,0.371,0.641,0.600,��쓌,1.4,��
2021/05/27,02:30,0.613,0.904,0.576,1.100,0.782,0.370,0.639,0.602,��쓌,2.0,��
2021/05/27,02:40,0.613,0.907,0.577,1.100,0.784,0.370,0.639,0.600,��쓌,1.7,��
2021/05/27,02:50,0.615,0.906,0.577,1.099,0.785,0.370,0.640,0.601,��,1.9,��
2021/05/27,03:00,0.614,0.906,0.577,1.101,0.783,0.370,0.639,0.600,��쓌,2.0,��
2021/05/27,03:10,0.614,0.908,0.577,1.100,0.783,0.369,0.639,0.601,��쓌,2.3,��
2021/05/27,03:20,0.614,0.906,0.576,1.098,0.782,0.370,0.641,0.600,��쓌,1.9,��
2021/05/27,03:30,0.614,0.904,0.577,1.100,0.783,0.370,0.640,0.601,��쓌,2.0,��
2021/05/27,03:40,0.613,0.906,0.576,1.101,0.784,0.371,0.640,0.600,��쓌,1.7,��
2021/05/27,03:50,0.614,0.909,0.578,1.100,0.784,0.370,0.641,0.600,��쓌,1.7,��
2021/05/27,04:00,0.614,0.904,0.578,1.100,0.786,0.369,0.639,0.600,��쓌,1.7,��
2021/05/27,04:10,0.613,0.905,0.576,1.100,0.784,0.370,0.641,0.599,��쓌,1.2,��
2021/05/27,04:20,0.613,0.905,0.577,1.100,0.785,0.370,0.640,0.601,�쓌,1.5,��
2021/05/27,04:30,0.614,0.907,0.577,1.101,0.783,0.371,0.638,0.601,�쓌,1.4,��
2021/05/27,04:40,0.616,0.906,0.577,1.101,0.784,0.370,0.639,0.600,�쓌,1.5,��
2021/05/27,04:50,0.612,0.905,0.576,1.100,0.785,0.370,0.640,0.601,�쓌,0.9,��
2021/05/27,05:00,0.614,0.906,0.577,1.100,0.783,0.369,0.640,0.599,-,CALM,��
2021/05/27,05:10,0.614,0.907,0.576,1.101,0.784,0.371,0.641,0.601,��쓌,1.2,��
2021/05/27,05:20,0.614,0.907,0.577,1.100,0.784,0.370,0.641,0.602,��,0.9,��
2021/05/27,05:30,0.615,0.907,0.578,1.101,0.783,0.370,0.640,0.601,��쓌,1.2,��
2021/05/27,05:40,0.614,0.908,0.578,1.100,0.782,0.368,0.641,0.601,�쓌,1.2,��
2021/05/27,05:50,0.615,0.906,0.578,1.102,0.784,0.370,0.640,0.600,-,CALM,��
2021/05/27,06:00,0.614,0.906,0.576,1.103,0.784,0.370,0.640,0.602,��쐼,0.6,��
2021/05/27,06:10,0.614,0.907,0.578,1.100,0.785,0.370,0.641,0.601,��쓌,0.6,��
2021/05/27,06:20,0.614,0.907,0.578,1.104,0.782,0.371,0.640,0.600,-,CALM,��
2021/05/27,06:30,0.614,0.907,0.576,1.101,0.786,0.370,0.642,0.601,���쐼,0.9,��
2021/05/27,06:40,0.615,0.908,0.579,1.102,0.784,0.370,0.639,0.601,-,CALM,��
2021/05/27,06:50,0.613,0.908,0.577,1.103,0.784,0.369,0.640,0.600,-,CALM,��
2021/05/27,07:00,0.615,0.907,0.578,1.102,0.785,0.370,0.639,0.601,-,CALM,��
2021/05/27,07:10,0.618,0.909,0.578,1.103,0.786,0.370,0.642,0.601,-,CALM,��
2021/05/27,07:20,0.614,0.907,0.580,1.104,0.786,0.370,0.642,0.601,��,0.6,��
2021/05/27,07:30,0.613,0.906,0.578,1.102,0.785,0.370,0.640,0.601,-,CALM,��
2021/05/27,07:40,0.616,0.906,0.580,1.101,0.784,0.370,0.639,0.599,��쓌,0.9,��
2021/05/27,07:50,0.616,0.910,0.578,1.101,0.785,0.369,0.639,0.598,-,CALM,��
2021/05/27,08:00,0.616,0.908,0.579,1.104,0.783,0.369,0.641,0.600,�쓌,0.6,��
2021/05/27,08:10,0.612,0.906,0.581,1.103,0.784,0.369,0.640,0.598,�쓌,0.8,��
2021/05/27,08:20,0.615,0.905,0.578,1.103,0.785,0.369,0.639,0.600,-,CALM,��
2021/05/27,08:30,0.612,0.903,0.577,1.101,0.783,0.368,0.639,0.598,-,CALM,��
2021/05/27,08:40,0.612,0.903,0.578,1.100,0.782,0.368,0.639,0.599,-,CALM,��
2021/05/27,08:50,0.614,0.905,0.577,1.103,0.782,0.369,0.638,0.600,�k�k��,0.8,��
2021/05/27,09:00,0.614,0.902,0.578,1.099,0.783,0.368,0.639,0.599,�k�k��,1.2,��
2021/05/27,09:10,0.614,0.901,0.577,1.101,0.783,0.369,0.640,0.598,�k��,1.9,��
2021/05/27,09:20,0.612,0.903,0.577,1.102,0.782,0.370,0.637,0.600,�k�k��,1.9,��
2021/05/27,09:30,0.611,0.903,0.576,1.101,0.782,0.367,0.639,0.598,�k,2.0,��
2021/05/27,09:40,0.613,0.903,0.577,1.103,0.783,0.367,0.639,0.598,�k�k��,2.0,��
2021/05/27,09:50,0.612,0.901,0.577,1.102,0.785,0.368,0.639,0.600,�k�k��,2.0,��
2021/05/27,10:00,0.612,0.904,0.578,1.103,0.783,0.368,0.638,0.598,�k�k��,2.5,��
2021/05/27,10:10,0.612,0.902,0.578,1.101,0.785,0.368,0.641,0.600,�k,1.7,�L
2021/05/27,10:20,0.614,0.905,0.578,1.103,0.782,0.369,0.640,0.600,�k,1.7,�L
2021/05/27,10:30,0.612,0.903,0.578,1.103,0.783,0.370,0.640,0.600,�k,2.2,�L
2021/05/27,10:40,0.614,0.903,0.578,1.104,0.784,0.371,0.639,0.600,�k,2.0,�L
2021/05/27,10:50,0.614,0.905,0.576,1.103,0.785,0.370,0.640,0.600,�k,2.6,�L
2021/05/27,11:00,0.613,0.905,0.579,1.101,0.784,0.369,0.640,0.601,�k�k��,2.0,�L
2021/05/27,11:10,0.614,0.903,0.579,1.101,0.785,0.371,0.639,0.599,�k,1.7,�L
2021/05/27,11:20,0.616,0.907,0.580,1.102,0.788,0.371,0.641,0.601,�k,1.9,�L
2021/05/27,11:30,0.615,0.908,0.582,1.106,0.788,0.373,0.639,0.599,�k,1.5,�L
2021/05/27,11:40,0.617,0.912,0.581,1.105,0.789,0.372,0.640,0.601,�k,1.5,�L
2021/05/27,11:50,0.618,0.911,0.581,1.107,0.791,0.373,0.640,0.601,�k�k��,1.7,�L
2021/05/27,12:00,0.617,0.912,0.583,1.106,0.789,0.375,0.641,0.599,�k�k��,1.7,�L
2021/05/27,12:10,0.618,0.908,0.585,1.107,0.789,0.375,0.641,0.600,�k�k��,1.7,�L
2021/05/27,12:20,0.617,0.908,0.584,1.105,0.787,0.377,0.640,0.600,�k��,1.9,�L
2021/05/27,12:30,0.618,0.911,0.585,1.107,0.787,0.378,0.642,0.602,�k��,0.9,�L
2021/05/27,12:40,0.618,0.911,0.584,1.106,0.785,0.375,0.639,0.601,��,0.6,�L
2021/05/27,12:50,0.617,0.907,0.583,1.105,0.782,0.376,0.639,0.600,��,0.9,�L
2021/05/27,13:00,0.616,0.907,0.581,1.102,0.779,0.374,0.638,0.597,��쓌,2.0,�L
2021/05/27,13:10,0.615,0.900,0.579,1.099,0.779,0.375,0.636,0.597,�쓌,2.3,�L
2021/05/27,13:20,0.612,0.895,0.578,1.096,0.775,0.375,0.635,0.597,�쓌,2.3,�L
2021/05/27,13:30,0.611,0.891,0.575,1.095,0.773,0.374,0.635,0.596,�쓌,2.5,�L
2021/05/27,13:40,0.610,0.888,0.575,1.092,0.769,0.374,0.633,0.594,�쓌,2.5,�L
2021/05/27,13:50,0.607,0.887,0.574,1.087,0.765,0.370,0.633,0.595,�쓌,3.2,�L
2021/05/27,14:00,0.608,0.884,0.570,1.084,0.765,0.372,0.633,0.594,�쓌,3.2,�L
2021/05/27,14:10,0.607,0.883,0.570,1.082,0.763,0.369,0.631,0.593,��쓌,4.4,�L
2021/05/27,14:20,0.604,0.881,0.570,1.079,0.762,0.368,0.631,0.594,��쓌,5.0,�L
2021/05/27,14:30,0.604,0.880,0.571,1.078,0.763,0.370,0.631,0.593,��쓌,7.0,�L
2021/05/27,14:40,0.602,0.878,0.568,1.078,0.762,0.366,0.631,0.593,��,8.4,�L
2021/05/27,14:50,0.602,0.878,0.568,1.075,0.759,0.368,0.631,0.593,��,7.8,�L
2021/05/27,15:00,0.601,0.877,0.568,1.072,0.758,0.366,0.628,0.593,��,7.3,�L
2021/05/27,15:10,0.598,0.873,0.565,1.072,0.757,0.365,0.630,0.591,��쓌,8.8,�L
2021/05/27,15:20,0.597,0.874,0.564,1.070,0.754,0.364,0.627,0.591,��,7.7,�L
2021/05/27,15:30,0.597,0.872,0.564,1.069,0.755,0.366,0.628,0.591,��,8.5,�L
2021/05/27,15:40,0.596,0.871,0.563,1.069,0.752,0.363,0.627,0.591,��,7.8,�L
2021/05/27,15:50,0.597,0.874,0.564,1.065,0.752,0.363,0.628,0.590,��,7.8,�L
2021/05/27,16:00,0.596,0.869,0.562,1.064,0.752,0.365,0.628,0.589,��쓌,8.4,�L
2021/05/27,16:10,0.595,0.869,0.564,1.064,0.750,0.363,0.628,0.588,��쓌,8.6,�L
2021/05/27,16:20,0.597,0.871,0.564,1.064,0.750,0.365,0.627,0.587,��,7.8,�L
2021/05/27,16:30,0.597,0.872,0.563,1.067,0.751,0.364,0.627,0.589,��,7.2,�L
2021/05/27,16:40,0.597,0.871,0.563,1.065,0.750,0.366,0.626,0.589,��,7.8,�L
2021/05/27,16:50,0.597,0.871,0.564,1.062,0.748,0.365,0.625,0.588,��,6.9,�L
2021/05/27,17:00,0.594,0.870,0.565,1.063,0.748,0.366,0.626,0.589,��,6.7,�L
2021/05/27,17:10,0.596,0.871,0.564,1.063,0.748,0.365,0.625,0.587,��,6.8,�L
2021/05/27,17:20,0.597,0.872,0.564,1.060,0.748,0.365,0.624,0.588,��,7.6,�L
2021/05/27,17:30,0.596,0.872,0.564,1.061,0.748,0.365,0.625,0.588,��쐼,6.0,�L
2021/05/27,17:40,0.596,0.870,0.562,1.061,0.749,0.365,0.625,0.589,��쐼,4.0,�L
2021/05/27,17:50,0.597,0.872,0.564,1.061,0.749,0.365,0.624,0.588,��,4.3,��
2021/05/27,18:00,0.596,0.873,0.564,1.061,0.751,0.364,0.626,0.589,��,4.3,��
2021/05/27,18:10,0.598,0.876,0.564,1.063,0.751,0.365,0.626,0.589,��,3.8,��
2021/05/27,18:20,0.598,0.875,0.562,1.063,0.751,0.363,0.626,0.591,��,4.4,�L
2021/05/27,18:30,0.598,0.877,0.563,1.063,0.750,0.364,0.626,0.589,��,4.7,��
2021/05/27,18:40,0.597,0.876,0.562,1.064,0.752,0.365,0.627,0.589,��,4.4,��
2021/05/27,18:50,0.598,0.874,0.563,1.064,0.749,0.364,0.627,0.590,��쐼,3.4,��
2021/05/27,19:00,0.598,0.876,0.560,1.065,0.751,0.362,0.624,0.591,�쐼,2.5,��
2021/05/27,19:10,0.597,0.878,0.560,1.065,0.752,0.362,0.626,0.590,���쐼,1.5,��
2021/05/27,19:20,0.596,0.875,0.561,1.066,0.751,0.364,0.625,0.590,���쐼,1.1,��
2021/05/27,19:30,0.596,0.874,0.562,1.067,0.753,0.364,0.627,0.590,-,CALM,��
2021/05/27,19:40,0.597,0.877,0.562,1.067,0.755,0.365,0.627,0.592,�k��,1.2,��
2021/05/27,19:50,0.595,0.877,0.563,1.064,0.753,0.363,0.626,0.591,�k�k��,1.2,��
2021/05/27,20:00,0.597,0.878,0.562,1.068,0.755,0.364,0.627,0.591,�k,1.2,��
2021/05/27,20:10,0.599,0.877,0.562,1.068,0.755,0.364,0.627,0.592,�k�k��,1.5,��
2021/05/27,20:20,0.597,0.879,0.560,1.066,0.755,0.363,0.626,0.590,�k�k��,1.7,��
2021/05/27,20:30,0.600,0.876,0.561,1.069,0.754,0.362,0.628,0.592,�k�k��,2.3,��
2021/05/27,20:40,0.599,0.881,0.561,1.069,0.757,0.364,0.629,0.591,�k�k��,2.3,��
2021/05/27,20:50,0.597,0.876,0.563,1.069,0.756,0.365,0.627,0.591,�k�k��,2.5,��
2021/05/27,21:00,0.600,0.877,0.562,1.070,0.755,0.363,0.628,0.591,�k�k��,1.9,��
2021/05/27,21:10,0.598,0.877,0.563,1.069,0.755,0.364,0.629,0.592,�k��,2.0,��
2021/05/27,21:20,0.598,0.878,0.563,1.070,0.756,0.365,0.628,0.593,�k�k��,1.9,��
2021/05/27,21:30,0.600,0.878,0.562,1.069,0.756,0.364,0.629,0.592,�k�k��,2.6,��
2021/05/27,21:40,0.599,0.880,0.562,1.067,0.756,0.366,0.629,0.593,�k�k��,3.9,��
2021/05/27,21:50,0.597,0.878,0.563,1.069,0.759,0.365,0.627,0.593,�k�k��,4.3,��
2021/05/27,22:00,0.599,0.879,0.562,1.068,0.759,0.365,0.628,0.595,�k�k��,3.7,��
2021/05/27,22:10,0.600,0.878,0.564,1.069,0.757,0.364,0.630,0.592,�k�k��,3.6,��
2021/05/27,22:20,0.598,0.878,0.563,1.071,0.758,0.364,0.630,0.593,�k�k��,3.7,��
2021/05/27,22:30,0.598,0.879,0.562,1.071,0.757,0.365,0.629,0.593,�k��,3.3,��
2021/05/27,22:40,0.600,0.878,0.563,1.071,0.759,0.366,0.630,0.592,�k��,4.0,��
2021/05/27,22:50,0.597,0.879,0.563,1.071,0.758,0.365,0.630,0.593,�k��,3.1,��
2021/05/27,23:00,0.600,0.879,0.564,1.070,0.759,0.365,0.630,0.592,�k��,1.7,��
2021/05/27,23:10,0.599,0.879,0.564,1.072,0.759,0.365,0.630,0.594,-,CALM,��
2021/05/27,23:20,0.599,0.878,0.564,1.072,0.759,0.365,0.629,0.594,�k��,1.5,��
2021/05/27,23:30,0.601,0.878,0.564,1.073,0.760,0.365,0.631,0.593,��쐼,1.7,��
2021/05/27,23:40,0.599,0.881,0.563,1.072,0.758,0.366,0.629,0.595,�쐼,1.5,��
2021/05/27,23:50,0.601,0.878,0.565,1.072,0.759,0.366,0.629,0.594,��쐼,3.0,��
